Warning: Javascript must be enabled to use all the features on this page!


Page Loading - Please Wait...

Click to hideNews Bulletins

Peak Streamflow for the Nation

USGS 03228805 Alum Creek at Africa OH

Delaware County, Ohio
Hydrologic Unit Code 05060001
Latitude  40°10'56", Longitude  82°57'42" NAD27
Drainage area 122  square miles
Contributing drainage area 122.00  square miles
Gage datum 822.00 feet above NGVD29
Output formats
Table
Graph
Tab-separated file
peakfq (watstore) format
Reselect output format
Water
Year
Date Gage
Height
(feet)
Stream-
flow
(cfs)
1963 1963-03-05 14.203 6,460
1964 1964-03-10 13.953 6,160
1965 1965-04-08 9.483 2,130
1966 1966-07-14 13.403 4,350
1967 1967-03-06 11.053 3,240
1968 1968-05-27 12.003,5 4,1002
1969 1969-05-19 13.133 5,210
1970 1970-01-29 12.453 4,520
1971 1971-02-23 10.713 3,000
1972 1972-04-13 12.243 4,310
1973 1973-06-20 13.513 5,6305
1974 1974-01-28 23.643,6 6296
1975 1975-01-28 25.50 3156
1976 1976-02-24 27.21 1,6206
1977 1977-04-11 27.04 1,4306
1978 1978-04-01 27.19 1,6006
1979 1979-09-19 27.74 2,3106
1980 1979-11-28 27.62 2,1506
1981 1981-05-14 26.47 8946
1982 1982-02-04 27.17 1,5806
1983 1983-05-06 27.47 1,9706
1984 1984-03-24 27.03 1,4506
1985 1985-02-27 27.41 1,9006
1986 1985-11-19 5.40 2,0106
1987 1987-07-04 5.38 1,7306
1988 1988-02-22 4.07 7366
1989 1989-05-30 5.21 1,5806
1990 1990-02-05 5.41 1,7606
1991 1990-12-23 5.30 1,7506
1992 1992-08-24 2.13 40.06
1993 1993-07-06 5.33 1,6606
1994 1994-02-01 5.47 1,7706
1995 1995-06-29 5.39 1,8006
1996 1996-05-14 5.43 1,8306
1997 1997-03-06 5.14 1,6006
1998 1998-07-01 5.27 1,7006
1999 1999-03-09 3.83 7086
2000 2000-06-18 3.37 4826
2001 2001-02-15 3.85 7196
2002 2002-04-16 5.23 1,6706
2003 2003-05-12 5.65 2,0906
2004 2003-10-01 5.26 1,7906
2005 2005-01-10 5.33 1,8406
2006 2006-01-18 5.14 1,7006
2007 2007-03-05 5.15 1,7106
2008 2008-02-08 5.24 1,7806
2009 2008-10-23 4.77 1,4406
2010 2009-10-13 4.11 9586
2011 2011-03-07 5.19 1,7406
2012 2011-12-01 4.00 8776
2013 2013-07-12 5.26 1,7906
2014 2013-12-24 5.68 2,1206
2015 2015-06-24 5.20 1,7506
2016 2015-12-31 4.96 1,5706
2017 2017-07-13 5.03 1,6206
2018 2018-04-06 5.22 1,7606
2019 2019-06-24 5.32 1,7506
2020 2020-05-25 5.30 1,7406
2021 2021-05-12 5.37 1,7806
?
  Peak Gage-Height Qualification Codes.
?
  Peak Streamflow Qualification Codes.